ULTP (45605 NORAD) Tracking and Keplerian Element Data

This shows tracking and keplerian element data for the satellite.

Feedback or suggestion? Click here.




ElementValue
Catalog45605
NameULTP
Epoch Orbit173
Epoch Day145.89177297
Epoch Year2020
RAAN105.5514
Inclination51.6485
Eccentricity0.000761
Argument of Perigee28.5168
Mean Anonmoly331.6227
Mean Motion15.28202708
Decay Rate8.5E-06
L11 45605U 20011D 20145.89177297 .00000850 00000-0 43236-4 0 9991
L22 45605 51.6485 105.5514 0007610 28.5168 331.6227 15.28202708 1736

Live tracking and technical data element details for ULTP (NORAD 45605). ULTP can be tracked NOW for your location showing map with azimuth and elevation plus other details from your city location.

Track the satellite on the map from your city or location and see movement details for azimuth, elevation, latitude, longitude, range, height, and movement on the map or in text.







IsCatalogInMostPopularTable: catalog: 45605, numindb: 1
Update: records affected: 1



GetName: 45605 ULTP

Hit Count: updated at: Tue, 26 May 2020 04:23:59 GMT